Time,TemperatureF,DewpointF,PressureIn,WindDirection,WindDirectionDegrees,WindSpeedMPH,WindSpeedGustMPH,Humidity,HourlyPrecipIn,Conditions,Clouds,dailyrainin,SolarRadiationWatts/m^2,SoftwareType,DateUTC
2013-05-08 00:08:00,50.8,47.0,29.92,SE,138,1.0,2.0,87,0.00,,,0.00,0,weatherlink.com 1.10,2013-05-08 07:08:00,
2013-05-08 00:23:00,50.3,47.0,29.92,SE,138,1.0,2.0,88,0.00,,,0.00,0,weatherlink.com 1.10,2013-05-08 07:23:00,
2013-05-08 00:38:00,49.8,46.0,29.92,SE,138,1.0,1.0,88,0.00,,,0.00,0,weatherlink.com 1.10,2013-05-08 07:38:00,
2013-05-08 00:53:00,49.2,47.0,29.91,SE,138,0.0,2.0,90,0.00,,,0.00,0,weatherlink.com 1.10,2013-05-08 07:53:00,
2013-05-08 01:08:00,48.9,46.0,29.92,SE,138,1.0,1.0,90,0.00,,,0.00,0,weatherlink.com 1.10,2013-05-08 08:08:00,
2013-05-08 01:23:00,48.2,46.0,29.92,SE,138,1.0,2.0,92,0.00,,,0.00,0,weatherlink.com 1.10,2013-05-08 08:23:00,
2013-05-08 01:38:00,48.2,46.0,29.92,SE,138,0.0,2.0,93,0.00,,,0.00,0,weatherlink.com 1.10,2013-05-08 08:38:00,
2013-05-08 01:53:00,47.7,46.0,29.92,SE,138,1.0,1.0,92,0.00,,,0.00,0,weatherlink.com 1.10,2013-05-08 08:53:00,
2013-05-08 02:08:00,47.1,45.0,29.92,SE,138,1.0,1.0,93,0.00,,,0.00,0,weatherlink.com 1.10,2013-05-08 09:08:00,
2013-05-08 02:23:00,46.7,45.0,29.92,SE,138,1.0,1.0,93,0.00,,,0.00,0,weatherlink.com 1.10,2013-05-08 09:23:00,
2013-05-08 02:38:00,46.6,45.0,29.93,SW,229,1.0,2.0,94,0.00,,,0.00,0,weatherlink.com 1.10,2013-05-08 09:38:00,
2013-05-08 02:53:00,47.0,46.0,29.92,West,269,1.0,4.0,95,0.00,,,0.00,0,weatherlink.com 1.10,2013-05-08 09:53:00,
2013-05-08 03:08:00,47.2,46.0,29.93,West,281,0.0,1.0,95,0.00,,,0.00,0,weatherlink.com 1.10,2013-05-08 10:08:00,
2013-05-08 03:23:00,47.5,47.0,29.93,West,281,0.0,2.0,96,0.00,,,0.00,0,weatherlink.com 1.10,2013-05-08 10:23:00,
2013-05-08 03:38:00,47.9,47.0,29.93,West,278,1.0,2.0,96,0.00,,,0.00,0,weatherlink.com 1.10,2013-05-08 10:38:00,
2013-05-08 03:53:00,48.3,47.0,29.93,NNW,331,1.0,3.0,96,0.00,,,0.00,0,weatherlink.com 1.10,2013-05-08 10:53:00,
2013-05-08 04:08:00,48.7,48.0,29.93,West,271,1.0,3.0,96,0.00,,,0.00,0,weatherlink.com 1.10,2013-05-08 11:08:00,
2013-05-08 04:23:00,48.9,48.0,29.93,West,268,2.0,3.0,96,0.00,,,0.00,0,weatherlink.com 1.10,2013-05-08 11:23:00,
2013-05-08 04:38:00,49.0,48.0,29.93,West,281,0.0,3.0,96,0.00,,,0.00,0,weatherlink.com 1.10,2013-05-08 11:38:00,
2013-05-08 04:53:00,49.0,48.0,29.93,WSW,257,0.0,2.0,96,0.00,,,0.00,0,weatherlink.com 1.10,2013-05-08 11:53:00,
2013-05-08 05:08:00,49.0,48.0,29.94,West,275,2.0,3.0,95,0.00,,,0.00,0,weatherlink.com 1.10,2013-05-08 12:08:00,
2013-05-08 05:23:00,49.0,48.0,29.94,SSW,209,0.0,3.0,95,0.00,,,0.00,0,weatherlink.com 1.10,2013-05-08 12:23:00,
2013-05-08 05:38:00,48.9,48.0,29.94,WSW,257,2.0,3.0,95,0.00,,,0.00,0,weatherlink.com 1.10,2013-05-08 12:38:00,
2013-05-08 05:53:00,48.8,48.0,29.95,WSW,240,2.0,4.0,96,0.00,,,0.00,0,weatherlink.com 1.10,2013-05-08 12:53:00,
2013-05-08 06:08:00,48.8,48.0,29.95,West,268,1.0,3.0,96,0.00,,,0.00,0,weatherlink.com 1.10,2013-05-08 13:08:00,
2013-05-08 06:23:00,48.8,48.0,29.95,WNW,291,1.0,3.0,96,0.00,,,0.00,5,weatherlink.com 1.10,2013-05-08 13:23:00,
2013-05-08 06:38:00,48.8,48.0,29.96,West,281,1.0,3.0,96,0.00,,,0.00,11,weatherlink.com 1.10,2013-05-08 13:38:00,
2013-05-08 06:53:00,48.9,48.0,29.96,WSW,246,1.0,2.0,96,0.00,,,0.00,18,weatherlink.com 1.10,2013-05-08 13:53:00,
2013-05-08 07:09:00,49.0,48.0,29.97,WSW,242,0.0,4.0,95,0.00,,,0.00,25,weatherlink.com 1.10,2013-05-08 14:09:00,
2013-05-08 07:24:00,49.2,48.0,29.97,West,263,3.0,4.0,95,0.00,,,0.00,37,weatherlink.com 1.10,2013-05-08 14:24:00,
2013-05-08 07:39:00,49.4,48.0,29.97,WSW,238,0.0,4.0,95,0.00,,,0.00,46,weatherlink.com 1.10,2013-05-08 14:39:00,
2013-05-08 07:54:00,49.6,48.0,29.98,West,273,1.0,5.0,95,0.00,,,0.00,44,weatherlink.com 1.10,2013-05-08 14:54:00,
2013-05-08 08:09:00,49.6,48.0,29.98,West,267,3.0,3.0,95,0.00,,,0.00,47,weatherlink.com 1.10,2013-05-08 15:09:00,
2013-05-08 08:24:00,49.7,48.0,29.99,SSW,207,2.0,5.0,94,0.00,,,0.00,93,weatherlink.com 1.10,2013-05-08 15:24:00,
2013-05-08 08:39:00,50.0,48.0,29.99,SSW,207,1.0,4.0,94,0.00,,,0.00,125,weatherlink.com 1.10,2013-05-08 15:39:00,
2013-05-08 08:54:00,50.3,48.0,29.99,SW,223,3.0,5.0,93,0.00,,,0.00,141,weatherlink.com 1.10,2013-05-08 15:54:00,
2013-05-08 09:09:00,50.7,49.0,30.00,SE,128,0.0,5.0,92,0.00,,,0.00,121,weatherlink.com 1.10,2013-05-08 16:09:00,
2013-05-08 09:24:00,51.1,49.0,30.00,ESE,121,2.0,5.0,91,0.00,,,0.00,137,weatherlink.com 1.10,2013-05-08 16:24:00,
2013-05-08 09:54:00,52.3,50.0,30.00,West,263,2.0,7.0,90,0.00,,,0.00,151,weatherlink.com 1.10,2013-05-08 16:54:00,
2013-05-08 10:09:00,52.6,50.0,30.01,West,264,2.0,5.0,91,0.00,,,0.00,199,weatherlink.com 1.10,2013-05-08 17:09:00,
2013-05-08 10:24:00,53.4,50.0,30.01,WSW,244,3.0,6.0,89,0.00,,,0.00,276,weatherlink.com 1.10,2013-05-08 17:24:00,
2013-05-08 10:39:00,53.7,50.0,30.01,West,269,6.0,8.0,88,0.00,,,0.00,181,weatherlink.com 1.10,2013-05-08 17:39:00,
2013-05-08 10:54:00,53.8,50.0,30.01,West,265,2.0,7.0,87,0.00,,,0.00,283,weatherlink.com 1.10,2013-05-08 17:54:00,
2013-05-08 11:09:00,55.0,51.0,30.01,WNW,284,2.0,5.0,87,0.00,,,0.00,396,weatherlink.com 1.10,2013-05-08 18:09:00,
2013-05-08 11:24:00,56.7,51.0,30.01,West,263,5.0,6.0,82,0.00,,,0.00,466,weatherlink.com 1.10,2013-05-08 18:24:00,
2013-05-08 11:39:00,57.4,52.0,30.02,WSW,252,2.0,9.0,81,0.00,,,0.00,431,weatherlink.com 1.10,2013-05-08 18:39:00,
2013-05-08 11:55:00,58.9,52.0,30.02,WSW,255,3.0,7.0,78,0.00,,,0.00,471,weatherlink.com 1.10,2013-05-08 18:55:00,
2013-05-08 12:10:00,58.7,52.0,30.02,ESE,119,2.0,10.0,78,0.00,,,0.00,392,weatherlink.com 1.10,2013-05-08 19:10:00,
2013-05-08 12:25:00,58.9,52.0,30.01,SW,222,5.0,8.0,77,0.00,,,0.00,475,weatherlink.com 1.10,2013-05-08 19:25:00,
2013-05-08 12:40:00,60.7,53.0,30.01,SW,224,3.0,7.0,75,0.00,,,0.00,666,weatherlink.com 1.10,2013-05-08 19:40:00,
2013-05-08 12:55:00,62.5,53.0,30.01,West,261,5.0,9.0,70,0.00,,,0.00,592,weatherlink.com 1.10,2013-05-08 19:55:00,
2013-05-08 13:10:00,62.7,53.0,30.01,West,277,7.0,7.0,71,0.00,,,0.00,540,weatherlink.com 1.10,2013-05-08 20:10:00,
2013-05-08 13:25:00,62.7,52.0,30.01,NNW,329,1.0,9.0,69,0.00,,,0.00,550,weatherlink.com 1.10,2013-05-08 20:25:00,
2013-05-08 13:40:00,62.6,53.0,30.00,SSW,194,4.0,9.0,70,0.00,,,0.00,780,weatherlink.com 1.10,2013-05-08 20:40:00,
2013-05-08 13:55:00,64.5,54.0,30.00,WSW,252,2.0,8.0,68,0.00,,,0.00,900,weatherlink.com 1.10,2013-05-08 20:55:00,
2013-05-08 14:10:00,65.5,53.0,30.00,WNW,283,4.0,7.0,65,0.00,,,0.00,884,weatherlink.com 1.10,2013-05-08 21:10:00,
2013-05-08 14:40:00,68.3,54.0,29.99,WNW,287,6.0,10.0,60,0.00,,,0.00,856,weatherlink.com 1.10,2013-05-08 21:40:00,
2013-05-08 14:55:00,69.1,54.0,29.99,West,278,5.0,8.0,60,0.00,,,0.00,817,weatherlink.com 1.10,2013-05-08 21:55:00,
2013-05-08 15:10:00,69.0,54.0,29.98,SW,215,2.0,11.0,60,0.00,,,0.00,782,weatherlink.com 1.10,2013-05-08 22:10:00,
2013-05-08 15:25:00,70.3,55.0,29.98,WNW,293,5.0,10.0,58,0.00,,,0.00,714,weatherlink.com 1.10,2013-05-08 22:25:00,
2013-05-08 15:40:00,70.1,55.0,29.97,NNW,347,2.0,9.0,59,0.00,,,0.00,724,weatherlink.com 1.10,2013-05-08 22:40:00,
2013-05-08 15:55:00,68.9,54.0,29.97,WSW,242,5.0,10.0,60,0.00,,,0.00,693,weatherlink.com 1.10,2013-05-08 22:55:00,
2013-05-08 16:10:00,69.4,54.0,29.96,West,271,7.0,10.0,58,0.00,,,0.00,649,weatherlink.com 1.10,2013-05-08 23:10:00,
2013-05-08 16:25:00,70.4,55.0,29.96,WSW,239,8.0,9.0,58,0.00,,,0.00,621,weatherlink.com 1.10,2013-05-08 23:25:00,
2013-05-08 16:40:00,69.0,54.0,29.96,WSW,257,4.0,10.0,59,0.00,,,0.00,610,weatherlink.com 1.10,2013-05-08 23:40:00,
2013-05-08 16:55:00,68.3,54.0,29.96,SSW,200,5.0,9.0,60,0.00,,,0.00,617,weatherlink.com 1.10,2013-05-08 23:55:00,
2013-05-08 17:10:00,68.2,54.0,29.96,WSW,257,6.0,10.0,60,0.00,,,0.00,566,weatherlink.com 1.10,2013-05-09 00:10:00,
2013-05-08 17:25:00,66.4,53.0,29.96,WSW,247,5.0,9.0,62,0.00,,,0.00,473,weatherlink.com 1.10,2013-05-09 00:25:00,
2013-05-08 17:40:00,64.9,52.0,29.96,WNW,290,2.0,8.0,64,0.00,,,0.00,392,weatherlink.com 1.10,2013-05-09 00:40:00,
2013-05-08 17:55:00,63.4,52.0,29.96,West,273,2.0,8.0,67,0.00,,,0.00,338,weatherlink.com 1.10,2013-05-09 00:55:00,
2013-05-08 18:10:00,62.9,53.0,29.96,WNW,292,1.0,5.0,69,0.00,,,0.00,287,weatherlink.com 1.10,2013-05-09 01:10:00,
2013-05-08 18:25:00,62.3,52.0,29.96,WSW,253,3.0,6.0,70,0.00,,,0.00,237,weatherlink.com 1.10,2013-05-09 01:25:00,
2013-05-08 18:40:00,61.2,52.0,29.96,WSW,252,3.0,9.0,71,0.00,,,0.00,188,weatherlink.com 1.10,2013-05-09 01:40:00,
2013-05-08 18:55:00,59.2,51.0,29.96,SSE,155,3.0,5.0,73,0.00,,,0.00,141,weatherlink.com 1.10,2013-05-09 01:55:00,
2013-05-08 19:11:00,57.8,50.0,29.96,SSW,207,2.0,6.0,76,0.00,,,0.00,102,weatherlink.com 1.10,2013-05-09 02:11:00,
2013-05-08 19:26:00,56.8,50.0,29.96,West,263,3.0,4.0,78,0.00,,,0.00,65,weatherlink.com 1.10,2013-05-09 02:26:00,
2013-05-08 19:41:00,55.6,50.0,29.97,WSW,254,0.0,4.0,80,0.00,,,0.00,33,weatherlink.com 1.10,2013-05-09 02:41:00,
2013-05-08 19:56:00,55.0,49.0,29.98,SSE,152,0.0,3.0,81,0.00,,,0.00,19,weatherlink.com 1.10,2013-05-09 02:56:00,
2013-05-08 20:11:00,54.5,49.0,29.98,ESE,122,1.0,2.0,82,0.00,,,0.00,5,weatherlink.com 1.10,2013-05-09 03:11:00,
2013-05-08 20:26:00,54.3,49.0,29.98,ESE,122,1.0,2.0,83,0.00,,,0.00,0,weatherlink.com 1.10,2013-05-09 03:26:00,
2013-05-08 20:41:00,54.3,49.0,29.99,ESE,122,0.0,2.0,83,0.00,,,0.00,0,weatherlink.com 1.10,2013-05-09 03:41:00,
2013-05-08 20:56:00,54.5,49.0,29.99,ESE,122,0.0,0.0,83,0.00,,,0.00,0,weatherlink.com 1.10,2013-05-09 03:56:00,
2013-05-08 21:11:00,54.0,49.0,29.99,ESE,122,0.0,1.0,84,0.00,,,0.00,0,weatherlink.com 1.10,2013-05-09 04:11:00,
2013-05-08 21:26:00,52.6,49.0,29.99,South,188,0.0,2.0,86,0.00,,,0.00,0,weatherlink.com 1.10,2013-05-09 04:26:00,
2013-05-08 21:41:00,51.7,48.0,30.00,SSW,192,1.0,2.0,87,0.00,,,0.00,0,weatherlink.com 1.10,2013-05-09 04:41:00,
2013-05-08 21:56:00,50.9,48.0,30.00,SW,223,1.0,2.0,89,0.00,,,0.00,0,weatherlink.com 1.10,2013-05-09 04:56:00,
2013-05-08 22:11:00,50.4,47.0,30.00,South,184,1.0,2.0,89,0.00,,,0.00,0,weatherlink.com 1.10,2013-05-09 05:11:00,
2013-05-08 22:26:00,50.0,47.0,30.01,SSE,165,1.0,2.0,90,0.00,,,0.00,0,weatherlink.com 1.10,2013-05-09 05:26:00,
2013-05-08 22:41:00,49.6,47.0,30.01,SSE,165,1.0,2.0,91,0.00,,,0.00,0,weatherlink.com 1.10,2013-05-09 05:41:00,
2013-05-08 22:56:00,49.2,47.0,30.01,SSE,165,1.0,1.0,91,0.00,,,0.00,0,weatherlink.com 1.10,2013-05-09 05:56:00,
2013-05-08 23:11:00,48.9,47.0,30.01,SSE,165,1.0,2.0,92,0.00,,,0.00,0,weatherlink.com 1.10,2013-05-09 06:11:00,
2013-05-08 23:26:00,48.7,47.0,30.01,SSE,165,1.0,2.0,92,0.00,,,0.00,0,weatherlink.com 1.10,2013-05-09 06:26:00,
2013-05-08 23:41:00,48.2,46.0,30.01,SSW,195,1.0,2.0,92,0.00,,,0.00,0,weatherlink.com 1.10,2013-05-09 06:41:00,
2013-05-08 23:56:00,47.7,46.0,30.01,South,171,2.0,2.0,93,0.00,,,0.00,0,weatherlink.com 1.10,2013-05-09 06:56:00,